Regional Weather Roundup
Issued by NWS Cleveland, OH

Home | Current Version | Previous Version | Graphics & Text | Print | Product List | Glossary On
Versions: 1 2 3 4 5 6 7 8 9 10 11 12 13 14 15 16 17 18 19 20 21 22 23 24 25 26 27 28 29 30 31 32 33 34 35 36 37 38 39 40 41 42 43 44 45 46 47 48 49 50
000
ASUS41 KCLE 010512
RWRCLE
OHIO REGIONAL WEATHER ROUNDUP
NATIONAL WEATHER SERVICE WILMINGTON, OH
100 AM EDT SAT OCT 01 2016

NOTE: "FAIR" INDICATES FEW OR NO CLOUDS BELOW 12,000 FEET WITH NO
SIGNIFICANT WEATHER AND/OR OBSTRUCTIONS TO VISIBILITY.

OHZ001>008-015>018-024>027-034-035-043-044-010600-
   NORTHWEST OHIO

CITY           SKY/WX    TMP DP  RH WIND       PRES   REMARKS
DEFIANCE       CLOUDY    62  58  86 NE8       30.04S
FINDLAY        CLOUDY    62  58  86 E6        30.02F
TOLEDO EXPRESS CLOUDY    60  60 100 E8        30.05S
TOLEDO EXEC    LGT RAIN  61  60  97 E7        30.07S
LIMA           CLOUDY    60  60 100 E7        30.02S
$$

OHZ009>014-019>023-028>033-038-089-010600-
   NORTHEAST OHIO

CITY           SKY/WX    TMP DP  RH WIND       PRES   REMARKS
CLE-HOPKINS    CLOUDY    61  55  81 E10       30.09S
CLE-LAKEFRONT  CLOUDY    61  56  83 E7        30.07F
CUY CO. ARPT   NOT AVBL
LORAIN-ELYRIA  CLOUDY    58  55  90 SE3       30.07S
ASHTABULA      CLOUDY    59  56  89 E8        30.11F
AKRON-CANTON   CLOUDY    59  54  83 SE9       30.08R
WOOSTER        LGT RAIN  58  56  93 SE12G17   30.08R FOG
MANSFIELD      LGT RAIN  59  58  96 E9        30.04F
YOUNGSTOWN     LGT RAIN  57  54  89 SE10      30.10S
$$

OHZ042-051>053-060>062-070>072-077>081-010600-
  SOUTHWEST OHIO

CITY           SKY/WX    TMP DP  RH WIND       PRES   REMARKS
CINC-COVINGTON CLOUDY    57  54  89 S3        30.03S
CINC-LUNKEN    CLOUDY    56  56 100 NE3       30.04S
HAMILTON       CLOUDY    53  52  96 CALM      30.04R
DAYTON         MOCLDY    55  54  96 SE5       30.04R
WRIGHT-PAT AFB MOCLDY    56  56 100 SE3       30.03R
DAYTON GENERAL FAIR      54  50  86 S5        30.03R
WILMINGTON     FAIR      51  50  96 SW5       30.04R
$$

OHZ036-037-039>041-045>050-054>059-063>069-073>076-082>088-010600-
  CENTRAL AND SOUTHEAST OHIO

CITY           SKY/WX    TMP DP  RH WIND       PRES   REMARKS
COLUMBUS       CLOUDY    61  61 100 S5        30.04R
OSU AIRPORT    MOCLDY    60  58  92 S5        30.04R
BOLTON FIELD   MOCLDY    57  56  97 S6        30.04S
RICKENBACK AFB FAIR      55  55 100 S3        30.04R FOG
NEWARK         FAIR      61  59  93 SE6       30.04R
MARION         CLOUDY    60  58  92 E9        30.04S
LANCASTER      FOG       55  54  96 CALM      30.05R VSB 1
ZANESVILLE     CLOUDY    59  58  96 S5        30.06R
NEW PHILLY     LGT RAIN  60  57  89 E7        30.08R
$$



USA.gov is the U.S. government's official web portal to all federal, state and local government web resources and services.